Location: Winthrop
(48.4780°N, 120.1850°W)
Time: 11:42:06
(UTC-07:00)

CAS-4B - Visible Passes

Search period start: 24 May 2022 00:00
Search period end: 03 June 2022 00:00
Orbit: 525 x 536 km, 43.0° (Epoch: 24 May)

Date Brightness Start Highest point End Pass type
(mag) Time Alt. Az. Time Alt. Az. Time Alt. Az.
24 May ? 21:28:13 10° WSW 21:31:59 38° S 21:35:45 10° ESE visible
24 May ? 23:08:05 10° WSW 23:11:30 27° SSW 23:11:33 27° SSW visible
25 May ? 22:55:56 10° WSW 22:59:14 24° SSW 22:59:40 24° S visible
26 May ? 22:43:47 10° WSW 22:46:56 22° SSW 22:47:47 20° S visible
27 May ? 22:31:40 10° WSW 22:34:36 19° SSW 22:35:53 17° S visible
28 May ? 22:19:36 10° WSW 22:22:16 17° SSW 22:23:59 14° S visible
29 May ? 22:07:36 10° WSW 22:09:55 15° SSW 22:12:07 10° S visible
30 May ? 21:55:43 10° WSW 21:57:32 13° SSW 21:59:20 10° S visible
31 May ? 21:44:11 10° SW 21:45:08 11° SSW 21:46:05 10° SSW visible
